[Iaude] MPEC K57: 2020 KU [a=1.32,e=0.27,i=6.3,H=28.6]

mpec at marsden.cfa.harvard.edu mpec at marsden.cfa.harvard.edu
Mon May 18 20:40:00 EDT 2020


M.P.E.C. 2020-K57                                  Issued 2020 May 19, 00:38 UT

     The Minor Planet Electronic Circulars contain information on unusual
         minor planets and routine data on comets.  They are published
    on behalf of Division F of the International Astronomical Union by the
          Minor Planet Center, Smithsonian Astrophysical Observatory,
                          Cambridge, MA 02138, U.S.A.

             Prepared using the Tamkin Foundation Computer Network

                              MPC at CFA.HARVARD.EDU
            URL https://www.minorplanetcenter.net/    ISSN 1523-6714

                                    2020 KU                                     


Observations:
     K20K00U* C2020 05 17.33055915 12 08.895+18 32 56.27         22.12wUEK057F51
     K20K00U  C2020 05 17.34238715 12 10.232+18 33 19.25         22.21wUEK057F51
     K20K00U  C2020 05 17.35392715 12 11.498+18 33 40.94         22.23wUEK057F51
     K20K00U  C2020 05 17.36549515 12 12.734+18 34 02.15         21.85wUEK057F51
     K20K00U ^C2020 05 18.27545115 16 54.122+19 01 27.55         21.50GVEK057568
     K20K00U ^C2020 05 18.27639715 16 54.333+19 01 30.00         21.36GVEK057568
     K20K00U ^C2020 05 18.27734415 16 54.560+19 01 32.71         21.42GVEK057568
     K20K00U ^C2020 05 18.27830115 16 54.786+19 01 35.37         21.41GVEK057568
     K20K00U  C2020 05 18.94704 15 21 02.01 +19 24 47.0          21.5 VVEK057033
     K20K00U  C2020 05 18.94998 15 21 02.95 +19 24 54.6          21.3 VVEK057033
     K20K00U  C2020 05 18.95293 15 21 03.91 +19 25 02.5          21.5 VVEK057033

Observer details:
033 Karl Schwarzschild Observatory, Tautenburg.  Observers S. Melnikov, B. 
   Stecklum.  Measurer B. Stecklum.  1.34-m f/3 Schmidt + CCD.
568 Mauna Kea.  Observers R. Wainscoat, L. Wells, T. Burdullis.  Measurers R. 
   Weryk, R. Wainscoat.  3.6-m Canada-France-Hawaii Telescope + CCD.
F51 Pan-STARRS 1, Haleakala.  Observers J. Bulger, T. Lowe, A. Schultz, M. 
   Willman.  Measurers K. Chambers, S. Chastel, T. de Boer, L. Denneau, J. 
   Fairlamb, H. Flewelling, M. Huber, C.-C. Lin, E. Magnier, Y. Ramanjooloo, R. 
   Wainscoat, R. Weryk.  1.8-m Ritchey-Chretien + CCD.

Orbital elements:
2020 KU                                                  Earth MOID = 0.0013 AU
Epoch 2020 May 18.0 TT = JDT 2458987.5                  Pike                    
M 333.04431              (2000.0)            P               Q                  
n   0.64981476     Peri.  220.50792     +0.23476265     +0.96709478             
a   1.3201086      Node    63.27648     -0.86107406     +0.25370428             
e   0.2739919      Incl.    6.30250     -0.45104098     +0.01902168             
P   1.52           H   28.66          G   0.15           U   8                  
Residuals in seconds of arc
200517 F51  0.1+  0.2-    200518 568  0.0+  0.0+    200518 033  0.2+  0.0-
200517 F51  0.1-  0.1+    200518 568  0.1-  0.1-    200518 033  0.0-  0.2-
200517 F51  0.1-  0.1+    200518 568  0.0-  0.0+    200518 033  0.0+  0.1-
200517 F51  0.1+  0.0+    200518 568  0.0+  0.1+
Ephemeris:
2020 KU                  a,e,i = 1.32, 0.27, 6                   q = 0.9584
Date    TT    R. A. (2000) Decl.     Delta      r    Elong.  Phase     V
2020 04 19    14 51 16.7 +12 54 28   0.1467  1.1353   151.3    25.1    25.9
...
2020 05 04    14 55 31.3 +15 41 31   0.07912 1.0764   148.2    29.5    24.6
...
2020 05 12    15 00 35.4 +17 04 18   0.04583 1.0479   144.6    34.0    23.5
...
2020 05 18    15 15 01.6 +18 53 00   0.02148 1.0284   141.1    38.2    21.9
2020 05 19    15 21 26.2 +19 31 29   0.01747 1.0253   140.3    39.0    21.5
2020 05 20    15 31 45.5 +20 29 05   0.01349 1.0222   139.4    40.2    20.9
...
2020 05 26    02 06 24.7 -11 32 22   0.01136 1.0051    44.9   134.6    25.1
...
2020 06 03    02 44 16.9 -15 28 26   0.04348 0.9857    47.9   130.2    27.6
...
2020 06 18    02 58 05.7 -14 31 59   0.1046  0.9615    56.0   118.8    28.4

M. P. C. Staff               (C) Copyright 2020 MPC           M.P.E.C. 2020-K57




More information about the Iaude mailing list